Regional Weather Roundup
Issued by NWS

Home | Current Version | Previous Version | Text Only | Print | Product List | Glossary Off
Versions: 1 2 3 4 5 6 7 8 9 10 11 12 13 14 15 16 17 18 19 20 21 22 23 24 25 26 27 28 29 30 31 32 33 34 35 36 37 38 39 40 41 42 43 44 45 46 47 48 49 50

000
ASUS45 KTFX 022010
RWRMT
MONTANA REGIONAL WEATHER ROUNDUP
NATIONAL WEATHER SERVICE GREAT FALLS MT
200 PM MDT THU JUL 02 2015

NOTE: "FAIR" INDICATES FEW OR NO CLOUDS BELOW 12000 FEET WITH NO
SIGNIFICANT WEATHER AND/OR OBSTRUCTIONS TO VISIBILITY.

MTZ001>007-043-022100-
WEST OF THE DIVIDE

CITY           SKY/WX    TMP DP  RH WIND       PRES   REMARKS
KALISPELL      CLEAR     87  51  28 S8        30.06F
MISSOULA       SUNNY     89  43  20 NW7       30.06F
BUTTE          SUNNY     83  31  15 W6        30.21F
MULLAN PASS    SUNNY     75  38  26 CALM      30.26S
DEER LODGE       N/A     82  41  23 CALM      30.19F
EUREKA           N/A     90  46  22 W6        30.03F
HAMILTON         N/A     86  39  19 NE3       30.07F
PLAINS           N/A     92  50  23 CALM      30.03F
RONAN            N/A     86  54  33 W3        30.11F
THOMPSON FALLS   N/A     93  47  20 N2        30.04F
$$

MTZ008-052>055-022100-
SOUTHWEST MONTANA

CITY           SKY/WX    TMP DP  RH WIND       PRES   REMARKS
BOZEMAN        SUNNY     84  52  33 N6        30.15F
DILLON         SUNNY     83  49  30 E6        30.17F
W YELLOWSTONE  SUNNY     81  30  16 S3        30.24F
THREE FORKS      N/A     82  55  39 NE5       30.13F
TWIN BRIDGES     N/A     83  44  25 SW5       30.13F
$$

MTZ009-010-012-014-046-048-049-054-022100-
EAST SLOPES AND CENTRAL MONTANA

CITY           SKY/WX    TMP DP  RH WIND       PRES   REMARKS
CUT BANK       SUNNY     80  48  32 SW6       30.15F
GREAT FALLS    SUNNY     82  50  32 NE8       30.15F
MALMSTROM AFB  SUNNY     80  47  31 E6        30.15F
HELENA         SUNNY     85  51  31 NW6       30.11F
CONRAD           N/A     78  57  48 NE2       30.17F
$$

MTZ011-013-016-021-045-047-050-051-022100-
NORTH CENTRAL MONTANA

CITY           SKY/WX    TMP DP  RH WIND       PRES   REMARKS
HAVRE          SUNNY     81  53  37 VRB5      30.12F
LEWISTOWN      SUNNY     78  51  38 NE5       30.20F
CHINOOK          N/A     81  55  41 W7        30.11F
FORT BENTON      N/A     81  54  39 CALM      30.13F
$$

MTZ017>020-022>027-061-062-022100-
NORTHEAST MONTANA

CITY           SKY/WX    TMP DP  RH WIND       PRES   REMARKS
GLASGOW        MOSUNNY   79  57  46 NW9       30.08F
JORDAN           N/A     78  55  44 N15       30.10S
SIDNEY         SUNNY     81  57  44 NW6       30.04F
WOLF POINT     PTSUNNY   80  59  48 VRB5      30.05S HAZE
MALTA            N/A     80  55  42 NW3       30.06S
PLENTYWOOD       N/A     79  57  47 W6G16     30.04S
SCOBEY           N/A     76  59  55 W1        30.06S
$$

MTZ028>42-056>058-022100-
SOUTHCENTRAL AND SOUTHEAST MONTANA

CITY           SKY/WX    TMP DP  RH WIND       PRES   REMARKS
BAKER          PTSUNNY   77  58  51 N14G21    30.09S HAZE
BILLINGS       MOSUNNY   84  52  33 E14G20    30.15F
LIVINGSTON     SUNNY     83  50  31 SE9       30.16F
MILES CITY     MOSUNNY   83  53  35 W10G23    30.07F
FORSYTH          N/A     81  52  36 NW12G17   30.09F
LAUREL           N/A     81  52  36 NE5       30.12F
ROUNDUP          N/A     79  49  34 NW10      30.06S
$$

REGIONAL REPORTS...DAKOTAS

CITY           SKY/WX    TMP DP  RH WIND       PRES   REMARKS
WILLISTON      LGT RAIN  79  61  53 N8        30.03S
MINOT          MOSUNNY   78  61  55 NW8       29.97S HAZE
DICKINSON      MOSUNNY   78  61  55 NW10      30.03S HAZE
BEACH          FAIR      75  61  60 NW13      30.08S HAZE
CROSBY         FAIR      75  66  73 NW10      30.03S
BISMARCK       PTSUNNY   80  63  55 NW10      29.97F HAZE
GRAND FORKS    MOSUNNY   79  64  60 S14       29.91F
FARGO          SUNNY     78  55  44 S13       29.96F
BUFFALO SD       N/A     77  57  50 N21G26    30.01S
RAPID CITY     MOSUNNY   78  58  49 N13G24    30.08S
$$

REGIONAL REPORTS...WYOMING/IDAHO/WASHINGTON

CITY           SKY/WX    TMP DP  RH WIND       PRES   REMARKS
GILLETTE       MOSUNNY   77  56  48 N8        30.17S
SHERIDAN       MOSUNNY   83  54  36 NW14      30.15F
BUFFALO WY     PTSUNNY   74  56  53 N9G18     30.21F
CODY           SUNNY     79  50  36 N9        30.19F
YELLOWSTONE LA   N/A     75  44  33 VRB5      30.35F
IDAHO FALLS    SUNNY     87  54  32 NW6       30.11F
SALMON         SUNNY     88  43  20 CALM      30.04F
BOISE          SUNNY     97  44  16 W14       29.98F HX  93
SPOKANE        MOSUNNY   91  43  18 VRB6      30.02F
$$

REGIONAL REPORTS...ALBERTA

CITY           SKY/WX    TMP DP  RH WIND       PRES   REMARKS
EDMONTON       PTSUNNY   81  48  32 W2        30.03F
CALGARY        PTSUNNY   77  55  47 SE10      30.13F
LETHBRIDGE     MOSUNNY   79  54  41 CALM      30.13F
MEDICINE HAT   MOSUNNY   82  54  36 SW10      30.09F
WATERTON GATE    N/A     79  54  41 NE7         N/A
CARDSTON         N/A     79  54  41 E6          N/A
MILK RIVER       N/A     81  50  34 S6          N/A
ONEFOUR          N/A     81  46  30 NW5         N/A
$$

REGIONAL REPORTS...SASKATCHEWAN

CITY           SKY/WX    TMP DP  RH WIND       PRES   REMARKS
SWIFT CURRENT  MOSUNNY   75  57  53 NW10      30.09F
REGINA         CLOUDY    77  63  61 NW13G20   30.03S SMOKE
SASKATOON      PTSUNNY   79  59  50 N9        30.03F SMOKE
CYPRESS HILLS    N/A     70  50  49 W5          N/A
VAL MARIE        N/A     75  57  53 N9          N/A
ASSINIBOIA       N/A     81  55  41 SW5         N/A
$$


USA.gov is the U.S. government's official web portal to all federal, state and local government web resources and services.